Tracking 28091 objects as of 30-Sep-2023
HD Live streaming from Space Station
objects crossing your sky now

STARLINK-1554

Track STARLINK-1554 now!
10-day predictions
STARLINK-1554 is classified as:


NORAD ID: 46055
Int'l Code: 2020-055AE
Perigee: 553.1 km
Apogee: 555.3 km
Inclination: 53.1 °
Period: 95.6 minutes
Semi major axis: 6925 km
RCS: Unknown
Launch date: August 7, 2020
Source: United States (US)
Launch site: AIR FORCE EASTERN TEST RANGE (AFETR)
Your satellite tracking list
Your tracking list is empty




NASA's NSSDC Master Catalog

Two Line Element Set (TLE):
1 46055U 20055AE  23272.11697600  .00025606  00000-0  17295-2 0  9993
2 46055  53.0541 163.5386 0001629  71.3401 288.7765 15.06446931173964
Source of the keplerian elements: AFSPC